Home   Weather   Newark   Past weeks
Flag for USA

Past Weather in Newark, New Jersey, USA — Yesterday and Last 2 Weeks

Now
64 °F

Rain. Fog.


Feels Like: 64 °F
Forecast: 68 / 52 °F
Wind: 13 mph from Southeast

Location: Newark International Airport

Current Time: Oct 16, 2019 at 3:58:07 pm

Latest Report: Oct 16, 2019 at 2:53 pm


Visibility: 2 mi

Pressure: 29.66 "Hg

Humidity: 90%

Dew Point: 61 °F

Location of NewarkLocation

Past Weather in Newark — Graph

°F

Newark Temperature Yesterday

Maximum temperature yesterday: 64 °F (at 2:51 pm)
Minimum temperature yesterday: 52 °F (at 6:51 am)
Average temperature yesterday: 58 °F

High & Low Weather Summary for the Past Weeks

 TemperatureHumidityPressure
High95 °F (Oct 2, 2:51 pm)100% (Oct 4, 12:33 am)30.47 "Hg (Oct 4, 12:33 am)
Low44 °F (Oct 5, 6:51 am)24% (Oct 10, 7:51 pm)29.70 "Hg (Oct 16, 1:51 pm)
Average62 °F66%30.10 "Hg
* Reported Oct 1 1:34 pm — Oct 16 1:51 pm, Newark. Weather by CustomWeather, © 2019

Note: Actual official high and low records may vary slightly from our data, if they occured in-between our weather recording intervals... More about our weather records

Advertising

Newark Weather History for the Previous 24 Hours

Scroll right to see more
 ConditionsComfort  
Time TempWeatherWind HumidityBarometerVisibility
1:51 pm
Wed, Oct 16
66 °FMostly cloudy.15 mph78%29.70 "Hg10 mi
12:51 pm66 °FLight rain. Mostly cloudy.10 mph78%29.76 "Hg10 mi
11:51 am65 °FMostly cloudy.15 mph78%29.81 "Hg10 mi
11:09 am66 °FCloudy.15 mph75%29.84 "Hg10 mi
10:51 am65 °FMostly cloudy.12 mph78%29.85 "Hg10 mi
9:51 am63 °FMostly cloudy.10 mph78%29.90 "Hg10 mi
8:51 am62 °FMostly cloudy.9 mph75%29.92 "Hg10 mi
7:51 am61 °FPartly sunny.7 mph75%29.94 "Hg10 mi
6:51 am56 °FPassing clouds.3 mph81%29.97 "Hg10 mi
5:51 am53 °FPassing clouds.3 mph86%29.98 "Hg10 mi
4:51 am50 °FPassing clouds.6 mph86%30.00 "Hg10 mi
4:34 am51 °FPassing clouds.7 mph86%30.00 "Hg10 mi
3:51 am53 °FPassing clouds.No wind86%30.01 "Hg10 mi
2:51 am57 °FClear.No wind78%30.03 "Hg10 mi
1:51 am55 °FClear.3 mph80%30.06 "Hg10 mi
12:51 am54 °FPassing clouds.3 mph80%30.06 "Hg10 mi
11:51 pm
Tue, Oct 15
56 °FPassing clouds.3 mph77%30.06 "Hg10 mi
10:51 pm56 °FPassing clouds.3 mph75%30.08 "Hg10 mi
9:51 pm56 °FPassing clouds.5 mph72%30.08 "Hg10 mi
8:51 pm57 °FPassing clouds.5 mph67%30.09 "Hg10 mi
7:51 pm58 °FPassing clouds.8 mph62%30.10 "Hg10 mi
6:51 pm60 °FPassing clouds.7 mph49%30.08 "Hg10 mi
5:51 pm63 °FPassing clouds.7 mph40%30.07 "Hg10 mi
4:51 pm64 °FPassing clouds.5 mph35%30.07 "Hg10 mi
3:51 pm64 °FScattered clouds.5 mph35%30.09 "Hg10 mi
Weather by CustomWeather, © 2019

See weather overview